User: anonymous   Login
Location: Banff
(51.1667°N, 115.5667°W)
Time: 23:37:36
(UTC+00:00)
Language:

Transit 2A - Orbit

View from above orbital plane
View from above orbital plane
View from above satellite
View from above satellite

Ground track
Ground track

The orbit data is extracted from the following two-line orbital elements,

1    45U 60007A   20340.21861248 -.00000038 +00000-0 +17526-4 0  9990
2    45 066.6945 290.8586 0257244 192.9491 166.4923 14.33697630090310
Epoch (UTC): 05 December 2020 05:14:48
Eccentricity: 0.0257244
inclination: 66.6945°
perigee height: 595 km
apogee height: 963 km
right ascension of ascending node: 290.8586°
argument of perigee: 192.9491°
revolutions per day: 14.33697630
mean anomaly at epoch: 166.4923°
orbit number at epoch: 9031

The dashed part of the orbit path shows where the satellite is in the earth's shadow,  

DLR